Starlink 32615

operational
NORAD ID: 62034 Int'l Des: 2024-216 Owner: SPXS Country: US Constellation: starlink
LEOCIRCULAR

Starlink 32615について

説明を読み込み中...

リアルタイム位置

3D地球を読み込み中...

次回通過

高度履歴

Altitude vs Time

uPlot chart will show altitude changes over time

軌道要素

1 62034U 24216C 25260.08440527 .00027834 00000-0 10185-2 0 9996
2 62034 43.0009 156.8671 0001355 301.3521 58.7198 15.27537293 46165
Epoch: Sep 17, 2025 • Age: 9 hours

現在のステータス

高度 493.7 km
速度 7.62 km/s
衛星直下点 -38.78°S, 68.18°W
打ち上げ日 Nov 21, 2024
運用期間 0.8 years
タイプ internet

技術仕様

分類 Payload
質量 730.00 kg
乾燥質量 700.00 kg
総質量 730.00 kg
長さ 0.30 m
直径 4.10 m
スパン 29.00 m
形状 Box + pan
製造者 SPXS
バスタイプ Starlink V2M
フェーズステータス In Orbit
所有者/国 SPXS/US

大規模コンステレーション

Loading constellations...